This demonstration page uses our WeatherBlox Daily Observations layout. Learn more.

39.08367, -84.50855

Hourly Observations for September 19, 2019

Temp ( °F °C ) Dew Point ( °F °C ) Humidity (%) Winds ( mph kmh ) Pressure ( in mb ) Visibility ( mi km ) Precip ( " mm )
12:53 am 00:53 Clear 61 16.1 58 14.4 90 90 Calm 30.09 1019 10 16.09344 0 0
1:53 am 01:53 Clear 60 15.6 57 13.9 90 90 Calm 30.09 1019 10 16.09344 0 0
2:53 am 02:53 Clear 58 14.4 56 13.3 93 93 Calm 30.06 1018 10 16.09344 0 0
3:53 am 03:53 Clear 60 15.6 57 13.9 90 90 Calm 30.06 1018 10 16.09344 0 0
4:53 am 04:53 Clear 59 15 57 13.9 93 93 ENE 3 6 30.06 1018 10 16.09344 0 0
5:53 am 05:53 Clear 59 15 57 13.9 93 93 ENE 5 7 30.06 1018 10 16.09344 0 0
6:53 am 06:53 Mostly Clear 59 15 57 13.9 93 93 ENE 3 6 30.09 1019 10 16.09344 0 0
7:53 am 07:53 Mostly Sunny 60 15.6 57 13.9 90 90 NE 3 6 30.09 1019 10 16.09344 0 0
8:53 am 08:53 Mostly Sunny 65 18.3 58 14.4 78 78 NE 3 6 30.09 1019 10 16.09344 0 0
9:53 am 09:53 Mostly Sunny 70 21.1 60 15.6 71 71 Calm 30.12 1020 10 16.09344 0 0
10:53 am 10:53 Sunny 74 23.3 63 17.2 69 69 VRB 3 6 30.12 1020 10 16.09344 0 0
11:53 am 11:53 Mostly Sunny 78 25.6 65 18.3 64 64 VRB 5 7 30.12 1020 10 16.09344 0 0
12:36 pm 12:36 Sunny 80 26.7 66 18.9 62 62 VRB 5 7 30.09 1019 10 16.09344 0 0
12:53 pm 12:53 Sunny 80 26.7 66 18.9 62 62 SW 5 7 30.09 1019 10 16.09344 0 0
1:53 pm 13:53 Mostly Sunny 83 28.3 67 19.4 59 59 SSE 7 11 30.09 1019 10 16.09344 0 0
2:53 pm 14:53 Sunny 84 28.9 67 19.4 57 57 VRB 5 7 30.06 1018 10 16.09344 0 0
3:53 pm 15:53 Mostly Sunny 86 30 68 20 55 55 S 3 6 30.06 1018 10 16.09344 0 0
4:53 pm 16:53 Sunny 84 28.9 66 18.9 55 55 SE 6 9 30.03 1017 10 16.09344 0 0
5:53 pm 17:53 Mostly Cloudy 83 28.3 66 18.9 57 57 SE 3 6 30.03 1017 10 16.09344 0 0
6:53 pm 18:53 Partly Cloudy 82 27.8 66 18.9 58 58 E 5 7 30.03 1017 10 16.09344 0 0
7:53 pm 19:53 Partly Cloudy 80 26.7 66 18.9 62 62 E 8 13 30.06 1018 10 16.09344 0 0
8:53 pm 20:53 Clear 78 25.6 66 18.9 67 67 ESE 6 9 30.06 1018 10 16.09344 0 0
9:53 pm 21:53 Clear 75 23.9 65 18.3 71 71 VRB 3 6 30.06 1018 10 16.09344 0 0
10:53 pm 22:53 Clear 74 23.3 65 18.3 74 74 Calm 30.06 1018 10 16.09344 0 0
11:53 pm 23:53 Clear 73 22.8 65 18.3 76 76 Calm 30.09 1019 10 16.09344 0 0

Powered by AerisWeather